Location: Waco, TX
(31.5480°N, 97.1670°W)
Time: 19:13:31
(UTC-05:00)

ISS - All Passes

Search period start: 01 October 2022 00:00
Search period end: 11 October 2022 00:00
Orbit: 416 x 420 km, 51.6° (Epoch: 01 October)

Date Brightness Start Highest point End Pass type
(mag) Time Alt. Az. Time Alt. Az. Time Alt. Az.
01 Oct - 13:11:28 10° S 13:14:19 26° SE 13:17:11 10° ENE daylight
01 Oct - 14:48:20 10° W 14:51:03 22° NW 14:53:45 10° NNE daylight
01 Oct - 21:20:38 10° NNW 21:23:46 35° NE 21:26:53 10° ESE visible
01 Oct - 22:58:18 10° W 23:00:16 15° SW 23:02:15 10° SSW night (unlit)
02 Oct - 12:24:43 10° SSE 12:26:31 14° SE 12:28:18 10° E daylight
02 Oct - 13:59:50 10° WSW 14:03:00 38° NW 14:06:11 10° NNE daylight
02 Oct - 20:33:06 10° NNW 20:35:45 21° NE 20:38:23 10° E visible
02 Oct - 22:09:34 10° WNW 22:12:31 28° SW 22:15:27 10° S visible
03 Oct - 13:11:48 10° SW 13:15:09 76° NW 13:18:32 10° NE daylight
03 Oct - 19:46:02 10° N 19:47:47 13° NNE 19:49:31 10° ENE visible
03 Oct - 21:21:30 10° NW 21:24:50 58° SW 21:28:08 10° SSE visible
04 Oct - 12:24:13 10° SSW 12:27:29 51° SE 12:30:47 10° NE daylight
04 Oct - 14:02:33 10° WNW 14:04:29 14° NNW 14:06:26 10° N daylight
04 Oct - 20:33:50 10° NW 20:37:12 68° NE 20:40:32 10° SE visible
05 Oct - 11:37:09 10° S 11:39:59 26° SE 11:42:51 10° ENE daylight
05 Oct - 13:14:00 10° W 13:16:45 23° NW 13:19:30 10° NNE daylight
05 Oct - 19:46:28 10° NNW 19:49:37 35° NE 19:52:45 10° ESE visible
05 Oct - 21:24:07 10° W 21:26:10 15° SW 21:28:12 10° SSW visible
06 Oct - 10:50:53 10° SSE 10:52:40 14° SE 10:54:27 10° E daylight
06 Oct - 12:26:00 10° WSW 12:29:11 39° NW 12:32:24 10° NNE daylight
06 Oct - 18:59:25 10° NNW 19:02:05 21° NE 19:04:44 10° E daylight
06 Oct - 20:35:55 10° WNW 20:38:53 28° SW 20:41:50 10° S visible
07 Oct - 11:38:27 10° SW 11:41:49 76° NW 11:45:12 10° NE daylight
07 Oct - 18:12:48 10° N 18:14:36 14° NNE 18:16:23 10° ENE daylight
07 Oct - 19:48:20 10° NW 19:51:40 57° SW 19:55:00 10° SSE visible
08 Oct - 10:51:21 10° SSW 10:54:38 52° SE 10:57:56 10° NE daylight
08 Oct - 12:29:45 10° WNW 12:31:40 14° NNW 12:33:36 10° N daylight
08 Oct - 19:01:08 10° NW 19:04:31 70° NE 19:07:53 10° SE daylight
09 Oct - 10:04:44 10° S 10:07:37 26° SE 10:10:31 10° ENE daylight
09 Oct - 11:41:42 10° W 11:44:25 22° NW 11:47:09 10° NNE daylight
09 Oct - 18:14:14 10° NNW 18:17:26 36° NE 18:20:36 10° ESE daylight
09 Oct - 19:52:00 10° W 19:54:00 15° SW 19:56:00 10° SSW visible
10 Oct - 09:18:53 10° SSE 09:20:46 14° SE 09:22:40 10° E daylight
10 Oct - 10:54:10 10° WSW 10:57:20 37° NW 11:00:32 10° NNE daylight
10 Oct - 17:27:39 10° NNW 17:30:23 22° NE 17:33:06 10° E daylight
10 Oct - 19:04:15 10° WNW 19:07:12 27° SW 19:10:08 10° S daylight
